Location: Unspecified
(0.0000°N, 0.0000°E)
Time: 20:13:25
(UTC+00:00)

Transit 4A - Pass Details

Date: 28 May 2022
Orbit: 864 x 980 km, 66.8° (Epoch: 26 June)

Event Time Altitude Azimuth Distance (km) Brightness Sun altitude
Rises 00:15:43 0° 159° (SSE) 3,570 - -68.1°
Reaches altitude 10° 00:20:56 10° 121° (ESE) 2,658 - -67.8°
Maximum altitude 00:22:06 11° 110° (ESE) 2,626 - -67.7°
Drops below altitude 10° 00:23:17 10° 99° (E) 2,671 - -67.7°
Sets 00:28:34 0° 62° (ENE) 3,641 - -67.2°
